QIANFAN-4 (60382 NORAD) Tracking and Keplerian Element Data

This shows tracking and keplerian element data for the satellite.

Feedback or suggestion? Click here.




ElementValue
Catalog60382
NameQIANFAN-4
Epoch Orbit964
Epoch Day286.87521022
Epoch Year2024
RAAN343.4032
Inclination88.9942
Eccentricity0.0014669
Argument of Perigee11.412
Mean Anonmoly348.7402
Mean Motion14.25276235
Decay Rate2.022E-05
L11 60382U 24140D 24286.87521022 .00002022 00000+0 85308-3 0 9991
L22 60382 88.9942 343.4032 0014669 11.4120 348.7402 14.25276235 9649



Live tracking and technical data element details for QIANFAN-4 (NORAD 60382). QIANFAN-4 can be tracked NOW for your location showing map with azimuth and elevation plus other details from your city location.







IsCatalogInMostPopularTable: catalog: 60382, numindb: 4
Update: records affected: 1



GetName: 60382 QIANFAN-4

Hit Count: updated at: Tue, 03 Dec 2024 01:41:20 GMT